Flag for U.S.A. Weather past 2 weeks in Myrtle Beach, South Carolina, U.S.A.

Now
39 °F

Overcast.


Feels Like: 32 °F
Forecast: 40 / 51 °F
Wind: 12 mph from Northeast

Location: Myrtle Beach Air Force Base

Current Time: Mar 1, 2015 at 3:45:50 AM

Latest Report: Mar 1, 2015 at 3:15 AM


Visibility: 10 mi

Pressure: 30.55 "Hg

Humidity: 61%

Dew point: 27 °F

Location of Myrtle BeachLocation

Historic Weather in Myrtle Beach — Graph

°F

Myrtle Beach temperature yesterday

Maximum temperature yesterday: 52 °F (at 1:45 PM)
Minimum temperature yesterday: 34 °F (at 5:55 AM)
Average temperature yesterday: 41 °F

Past Weeks' High & Low Weather Summary

 TemperatureHumidityPressure
High63 °F (Feb 17, 1:55 AM)94% (Feb 21, 6:46 PM)30.70 "Hg (Feb 21, 6:46 PM)
Low18 °F (Feb 20, 4:55 AM)16% (Feb 15, 2:45 PM)29.53 "Hg (Feb 26, 3:35 AM)
Average39 °F66%30.17 "Hg
* Reported Feb 14 2:15 AM — Mar 1 2:55 AM, Myrtle Beach, Weather by CustomWeather, © 2015

Note: Actual official high and low records may vary slightly from our data, if they occured in-between our weather recording intervals... More about our weather records

Advertising

Myrtle Beach weather history for previous 24 hours

 ConditionsComfort  
Time TempWeatherWind HumidityBarometerVisibility
2:55 AM
Sun, Mar 1
39 °FOvercast.9 mph65%30.57 "Hg10 mi
2:35 AM39 °FOvercast.9 mph61%30.58 "Hg10 mi
2:15 AM39 °FOvercast.13 mph56%30.59 "Hg10 mi
1:55 AM41 °FOvercast.7 mph57%30.60 "Hg10 mi
1:35 AM41 °FOvercast.12 mph57%30.60 "Hg10 mi
1:15 AM41 °FOvercast.9 mph61%30.60 "Hg10 mi
12:55 AM43 °FOvercast.6 mph49%30.61 "Hg10 mi
12:15 AM43 °FOvercast.10 mph49%30.62 "Hg10 mi
11:55 PM
Sat, Feb 28
43 °FOvercast.9 mph49%30.62 "Hg10 mi
11:35 PM43 °FOvercast.8 mph49%30.63 "Hg10 mi
11:15 PM43 °FOvercast.7 mph49%30.63 "Hg10 mi
10:55 PM43 °FOvercast.12 mph49%30.63 "Hg10 mi
9:53 PM45 °FOvercast.12 mph46%30.65 "Hg10 mi
8:45 PM45 °FOvercast.12 mph46%30.66 "Hg10 mi
7:45 PM46 °FOvercast.14 mph43%30.63 "Hg10 mi
6:45 PM46 °FMostly cloudy.8 mph40%30.63 "Hg10 mi
5:45 PM48 °FMostly cloudy.12 mph40%30.63 "Hg10 mi
4:45 PM50 °FOvercast.14 mph37%30.62 "Hg10 mi
3:45 PM52 °FOvercast.15 mph38%30.61 "Hg10 mi
2:45 PM52 °FPartly sunny.13 mph35%30.62 "Hg10 mi
1:45 PM52 °FScattered clouds.14 mph38%30.62 "Hg10 mi
12:45 PM48 °FPartly sunny.13 mph46%30.66 "Hg10 mi
11:45 AM45 °FScattered clouds.12 mph49%30.68 "Hg10 mi
10:45 AM41 °FSunny.12 mph61%30.70 "Hg10 mi
9:45 AM37 °FSunny.13 mph70%30.69 "Hg10 mi
8:45 AM36 °FSunny.14 mph75%30.67 "Hg10 mi
7:45 AM34 °FPartly sunny.16 mph75%30.63 "Hg10 mi
6:45 AM34 °FSunny.12 mph81%30.61 "Hg10 mi
5:55 AM34 °FClear.10 mph81%30.59 "Hg10 mi
5:35 AM36 °FClear.10 mph75%30.58 "Hg10 mi
5:15 AM36 °FClear.12 mph81%30.57 "Hg10 mi
4:55 AM36 °FClear.10 mph75%30.57 "Hg10 mi
4:35 AM36 °FClear.12 mph81%30.56 "Hg10 mi
4:15 AM36 °FClear.10 mph81%30.55 "Hg10 mi
3:55 AM36 °FClear.10 mph81%30.55 "Hg10 mi
3:35 AM37 °FClear.9 mph75%30.55 "Hg10 mi
3:15 AM37 °FClear.9 mph75%30.54 "Hg10 mi
Weather by CustomWeather, © 2015

See weather overviewHow to use our weather pages